Voltar ao catálogo

COSMOS 2251 DEB

AtivoLEO
NORAD 34963·DEBRIS·🇷🇺 Russia

Lançado Jun 16, 1993 de Plesetsk Cosmodrome

Loading…

Próximas Passagens (próximas 24 horas)

TLE

EnvelhecendoSource: Space-Track

Época: Sep 11, 2026, 17:23 UTC

1 34963U 93036AES 26254.72487986  .00003025  00000-0  72839-3 0  9998
2 34963  74.1670 252.3784 0040051   1.4252 358.7017 14.53219742907642

Acompanhe COSMOS 2251 DEB em tempo real com AllMySat

Download on the App Store